Healthsat 2

operational
NORAD ID: 22826 Int'l Des: 1993-061 Owner: SATEL Country: US
LEOCIRCULARRETROGRADESSO

About Healthsat 2

Description loading...

Live Position

Loading 3D Globe...

Upcoming Passes

Altitude History

Altitude vs Time

uPlot chart will show altitude changes over time

Two-Line Element Set

1 22826U 93061D 26063.12361684 .00000193 00000-0 89649-4 0 9990
2 22826 98.6942 130.4362 0009502 38.5246 321.6613 14.31334839692281
Epoch: Mar 4, 2026 • Age: 21 hours

Current Status

Altitude 812.1 km
Velocity 7.44 km/s
Sub-Earth Point -46.88°S, 172.83°W
Launch Date Sep 26, 1993
Age 32.4 years
Type other

Technical Details

Classification Payload
Mass 50.00 kg
Dry Mass 50.00 kg
Total Mass 50.00 kg
Length 0.60 m
Diameter 0.40 m
Span 6.50 m
Shape Box + Ant
Manufacturer SSTL
Bus Type UoSAT
Phase Status Unknown Active Status
Owner/State SATEL/US

Large Constellations

Loading constellations...